sat.trackr.live / text

‹ back to catalog

UNKNOWN

NORAD 87672

UNKNOWN UNKNOWN UNKNOWN

§ Identity

Operator
Country
Launch date
Launch site
Launch vehicle
Mass (kg)
RCS (m²)

External: N2YO · Heavens-Above

§ Orbital elements

Epoch: 2026-09-16T07:00:32.027904Z

Period
100.77 min
Inclination
70.8571°
Eccentricity
0.0056067
Mean motion
14.28942635 rev/d
Perigee alt
755.0 km
Apogee alt
835.5 km
Semi-major
7,173.4 km
B*
8.4382e-4
RAAN
126.4242°
Arg perigee
208.7744°
Mean anomaly
151.0290°
Rev number
66,409

§ Raw data

UNKNOWN1 87672U          26259.29203736  .00002120  00000+0  84382-3 0  99982 87672  70.8571 126.4242 0056067 208.7744 151.0290 14.28942635664094

JSON: /api/v1/satellites/87672 · /tle

For live sub-satellite position, see the globe view (requires WebGL).

§ Visibility from observer

Set your observer location to see the next 7 days of passes ≥ 10°. The values pass through the URL so the page stays shareable.

No JS? Fill the form by hand. The geolocation button needs JavaScript.